Location: Melara
(45.0500°N, 11.1833°E)
Time: 20:36:20
(UTC+00:00)

Cosmos 1674 Rocket - Pass Details

Date: 26 May 2022
Orbit: 603 x 629 km, 82.5° (Epoch: 02 July)

Event Time Altitude Azimuth Distance (km) Brightness Sun altitude
Exits shadow 00:07:01 51° 267° (W) 770 3.8 -22.7°
Maximum altitude 00:07:18 52° 282° (WNW) 760 3.9 -22.7°
Drops below altitude 10° 00:11:33 10° 359° (N) 1,963 7.2 -22.5°
Sets 00:13:49 0° 5° (N) 2,869 8.4 -22.4°
